Regional Weather Roundup
Issued by NWS Green Bay, WI

Home | Current Version | Previous Version | Graphics & Text | Print | Product List | Glossary Off
Versions: 1 2 3 4 5 6 7 8 9 10 11 12 13 14 15 16 17 18 19 20 21 22 23 24 25 26 27 28 29 30 31 32 33 34 35 36 37 38 39 40 41 42 43 44 45 46 47 48 49 50

000
ASUS43 KGRB 290759
RWRGRB

NORTH-CENTRAL AND NORTHEAST WISCONSIN REGIONAL WEATHER ROUNDUP
NATIONAL WEATHER SERVICE GREEN BAY WI
300 AM CDT TUE JUL 29 2014

WIZ005-009-010>012-018-019-290900-
NORTH CENTRAL WISCONSIN

CITY           SKY/WX    TMP DP  RH WIND       PRES   REMARKS
IRONWOOD       NOT AVBL
MANITOWISH WTR NOT AVBL
ARBOR VITAE    NOT AVBL
EAGLE RIVER    NOT AVBL
LAND O LAKES   NOT AVBL
RHINELANDER    PTCLDY    52  51  97 CALM      30.04F
PHILLIPS       CLEAR     53  53  99 CALM      30.05F
ANTIGO         NOT AVBL
TOMAHAWK       PTCLDY    52  51  96 CALM      30.05F
MERRILL        NOT AVBL
$$

WIZ013-073-290900-
NORTHEAST WISCONSIN

CITY           SKY/WX    TMP DP  RH WIND       PRES   REMARKS
IRON MOUNTAIN  PTCLDY    54  51  90 NW3       29.98F
MARINETTE      MOCLDY    57  54  88 CALM      29.97F
$$

WIZ017-030-035>037-045-290900-
CENTRAL WISCONSIN

CITY           SKY/WX    TMP DP  RH WIND       PRES   REMARKS
MEDFORD        NOT AVBL
WAUSAU         CLEAR     57  54  89 NW8       30.03S
MOSINEE        CLEAR     54  54 100 NW6       30.05S
MARSHFIELD     CLEAR     58  53  84 NW8       30.05F
WISC RAPIDS    PTCLDY    58  54  86 CALM      30.06F
STEVENS POINT  NOT AVBL
WAUPACA        CLEAR     63  55  74 W5        30.02F
SHAWANO        CLEAR     60  55  81 NW6       30.01S
CLINTONVILLE   CLEAR     57  54  88 NW6       30.01S
$$

WIZ038-039-048-051-290900-
FOX VALLEY

CITY           SKY/WX    TMP DP  RH WIND       PRES   REMARKS
NWS GREEN BAY  CLEAR     58  55  90 W8        29.99F
APPLETON       NOT AVBL
OSHKOSH        PTCLDY    60  55  83 W6        30.01F
FOND DU LAC    PTCLDY    61  54  77 W7        30.02F
$$

WIZ022-050-052-290900-
EAST CENTRAL WISCONSIN

CITY           SKY/WX    TMP DP  RH WIND       PRES   REMARKS
STURGEON BAY   CLEAR     61  54  77 NW8       29.99S
MANITOWOC      NOT AVBL
SHEBOYGAN      CLOUDY    61  56  83 W3        30.00F
$$

LMZ563-521-522-541>543-290900-
LAKESHORE

STATION/POSITION TIME  TEMP    WIND        PRES    VSBY  WAVE
                       AIR SEA DIR/SP/G                  HT/PER
                 (UTC) (F)     (DEG/KT/KT) (MB)    (MI)  (FT/S)
SHEBOYGAN LKSHOR 0700   63     270/  9/ 11 1016.1F
KEWAUNEE LKSHORE 0700   61     300/  4/  6 1015.8F
NORTHPORT PIER   0700   63     300/  8/ 15 1014.6F
N MID LAKE BUOY  0700   58 54  300/  6/  8 1014.0F         1
S GREEN BAY BUOY 0700   64 66  300/  8     1016.3F
SISTER BAY LKSHO 0700   64     340/ 11/ 13   N/A
CHAMBERS ISLAND  0700   62     270/  3/  6 1015.2F
MENOMINEE LKSHOR 0700   61     290/  7/ 13 1015.7F
$$



USA.gov is the U.S. government's official web portal to all federal, state and local government web resources and services.